Location: Knobs
(40.8333°S, 175.2333°E)
Time: 01:23:44
(UTC+00:00)

Cosmos 1818 - Pass Details

Date: 12 June 2024
Orbit: 770 x 802 km, 65.0° (Epoch: 22 July)

Event Time Altitude Azimuth Distance (km) Brightness Sun altitude
Rises 18:37:14 0° 312° (NW) 3,269 6.5 -11.7°
Reaches altitude 10° 18:39:44 10° 306° (NW) 2,343 5.7 -11.3°
Maximum altitude 18:44:54 47° 232° (SW) 1,042 3.8 -10.4°
Drops below altitude 10° 18:50:06 10° 158° (SSE) 2,351 6.0 -9.4°
Sets 18:52:38 0° 152° (SSE) 3,281 6.8 -9.0°
